vendredi 28 novembre 2014

Suivez nous sur

Facebook

Constructions amateurs

La construction amateur d'aéronefs existe depuis longtemps à Béziers, avec par exemple en vol un Bilouis (avion de voltige), un MCR (avion à construire en kit), et un Jodel D18. Elle s'est structuré récemment avec la création fin 2011 d'un club RSA Béziers.
Depuis nous avons eu la mise en vol de 2 avions Gaz'aile 2, avions à moteur diesel, et tout récemment d'un Jodel D112 motorisé avec le moteur 6 cylindres Jabiru 3300 de 120 cv. Le Jodel D18 a changé de propriétaire, mais il est resté dans l'association, et un BB Jodel vient de nous rejoindre.
Le parc Biterrois est donc actuellement de 6 machines. Il y en a une autre en construction qui avance à grands pas, un troisième Gaz'aile 2.

Plus d'infos dans la partie "Les activités / Constructions amateurs".

METAR
LFMU 281300Z AUTO 14015KT 8000 TS BKN016/// BKN032/// BKN048/// ///CB 20/17 Q0996 =
TAF
TAF LFMU 281100Z 2812/2912 10020KT 9999 SCT010TCU BKN020 BKN030 TEMPO 2812/2820 11035G45KT 5000 SHRA BKN010TCU PROB40 TEMPO 2812/2818 VRB40G55KT 1500 TSRA BKN010CB BECMG 2820/2822 NSC =